OpenBCM V1.08-5-g2f4a (Linux)

Packet Radio Mailbox

IZ3LSV

[San Dona' di P. JN]

 Login: GUEST





  
CX2SA  > KEP      28.03.20 02:31l 86 Lines 3609 Bytes #999 (0) @ ARL
BID : ARLK025
Read: GUEST
Subj: ARLK025 Keplerian data
Path: IZ3LSV<IQ2LB<IQ5KG<I0OJJ<N6RME<CX2SA
Sent: 200327/2300Z @:CX2SA.SAL.URY.SOAM #:27422 [Salto] FBB7.00e $:ARLK025
From: CX2SA@CX2SA.SAL.URY.SOAM
To  : KEP@ARL


ZCZC SK25
QST de W1AW
Keplerian Bulletin 25  ARLK025
From ARRL Headquarters
Newington, CT  March 27, 2020
To all radio amateurs

SB KEP ARL ARLK025
ARLK025 Keplerian data

Special thanks to AMSAT-NA (AMSAT.ORG) for the following Keplerian
data.

Decode 2-line elsets with the following key:
1 AAAAAU 00  0  0 BBBBB.BBBBBBBB  .CCCCCCCC  00000-0  00000-0 0  DDDZ
2 AAAAA EEE.EEEE FFF.FFFF GGGGGGG HHH.HHHH III.IIII JJ.JJJJJJJJKKKKKZ
KEY: A-CATALOGNUM B-EPOCHTIME C-DECAY D-ELSETNUM E-INCLINATION F-RAAN
G-ECCENTRICITY H-ARGPERIGEE I-MNANOM J-MNMOTION K-ORBITNUM Z-CHECKSUM

0 AO-07
1 7530U 74089B   20087.53397441 -.00000043 +00000-0 +14868-4 0  9995
2 7530 101.7912 057.7621 0012245 160.2163 310.9259 12.53642614075969
0 FO-29
1 24278U 96046B   20087.31154412 -.00000033  00000-0  39706-5 0  9993
2 24278  98.5715 207.9466 0349614 227.4600 129.6532 13.53096880166028
0 ISS
1 25544U 98067A   20087.87753803  .00001361  00000-0  32977-4 0  9991
2 25544  51.6458  30.7898 0005282  63.7403 334.7891 15.48924387219419
0 SO-50
1 27607U 02058C   20087.56808419 -.00000009 +00000-0 +19410-4 0  9994
2 27607 064.5540 264.7262 0058194 198.2692 161.6321 14.75619070928640
0 CO-55
1 27844U 03031E   20087.54299800 +.00000031 +00000-0 +33767-4 0  9990
2 27844 098.6846 096.5055 0008770 295.5217 064.5053 14.22227927868453
0 RS-22
1 27939U 03042A   20087.59791082 +.00000067 +00000-0 +20679-4 0  9998
2 27939 098.0760 223.5691 0011619 249.9698 110.0251 14.66845625882011
0 RS-30
1 32953U 08025A   20087.46456984  .00000037  00000-0  19437-3 0  9997
2 32953  82.5060 328.9098 0018231 232.4908 127.4517 12.43094654537445
0 KKS-1
1 33499U 09002H   20087.53253554  .00000085  00000-0  20569-4 0  9997
2 33499  98.3272 299.9329 0009796  32.9392 327.2424 14.75515027600932
0 AO-71
1 37854U 11061E   20087.44559641 +.00000597 +00000-0 +38242-4 0  9995
2 37854 101.7063 136.3925 0158653 305.6867 052.9667 15.07094142459128
0 AO-73
1 39444U 13066AE  20087.53720129 +.00000225 +00000-0 +33906-4 0  9990
2 39444 097.5599 092.3052 0058033 177.5956 182.5548 14.82084657341231
0 UKUBE 1
1 40074U 14037F   20087.45755144  .00000281  00000-0  40787-4 0  9993
2 40074  98.4534 270.9106 0005171  35.3084 324.8462 14.84218620309593
0 XW-2A
1 40903U 15049E   20087.53932846  .00001768  00000-0  42309-4 0  9996
2 40903  97.2987 136.3991 0012740 192.4990 303.5936 15.42782672253845
0 XW-2F
1 40910U 15049M   20087.49696169  .00000951  00000-0  50350-4 0  9992
2 40910  97.4679  92.2057 0012920 288.7443 222.5229 15.17787607249900
0 XW-2B
1 40911U 15049N   20087.52507398  .00000775  00000-0  43617-4 0  9994
2 40911  97.4759  90.4744 0012460 300.5327 177.1172 15.16128506249757
0 IO-86
1 40931U 15052B   20084.71899075  .00000766  00000-0  17502-4 0  9998
2 40931   6.0018 219.7236 0013605 155.9783 204.1542 14.76629852242711
0 CAS-4B
1 42759U 17034B   20087.52969251  .00000141  00000-0  22085-4 0  9995
2 42759  43.0187 117.1516 0011889 240.7410 277.2424 15.09771827153586
0 CAS-4A
1 42761U 17034D   20087.47547370  .00000252  00000-0  28765-4 0  9990
2 42761  43.0187 116.8026 0012542 240.3788 262.4818 15.09850846153573
0 AO-91
1 43017U 17073E   20087.52124708 +.00000649 +00000-0 +56439-4 0  9999
2 43017 097.7256 002.9080 0256343 317.5778 040.5865 14.78857718127052
0 AO-92
1 43137U 18004AC  20087.47877829  .00000929  00000-0  41352-4 0  9999
2 43137  97.4526 159.1744 0008801 354.5834   5.5307 15.23961110122557

Keplerian bulletins are transmitted twice weekly from W1AW.  The
next scheduled transmission of these data will be Tuesday, March 31,
2020, at 2230z on Baudot and BPSK31.
NNNN


Read previous mail | Read next mail


 14.10.2025 05:02:24lGo back Go up